Date String (YYYY-MM-DD hh:mm:ss) UTC,Instrument flags,absolute air pressure of the measurement (hPa),sample flow rate (lpm),inlet stack bypass flow (lpm),air temperature of the measurement (°C),ambient temperature measured by the external sensor (°C),aerosol sample conditioner tube jacket temperature (°C),OPC LED temperature (°C),internal box temperature (°C),relative humidity of the measurement (%),span deviation,mass concentration of particles derived from Lorenz-Mie calculation of OPC scattering (μg/m³),mass concentration of particles derived from Lorenz-Mie calculation of OPC scattering (μg/m³),mass concentration of particles derived from Lorenz-Mie calculation of OPC scattering (μg/m³)
DateTimeUTC,F1_M11,P_M11,Q1_M11,Q2_M11,T1_M11,T2_M11,T3_M11,T4_M11,T5_M11,U1_M11,ZSPAN_M11,X2_M11,X0_M11,X1_M11
2023-06-03 08:00:00,SystemResetWarning,0830.2,5.01,000.00,030.5,029.0,000.0,038.9,032.1,29.4,0003.7,0005.74,0010.02,0004.90
2023-06-03 08:01:00,SystemResetWarning,0830.3,5.00,000.00,030.5,029.0,000.0,038.9,032.1,29.4,0003.7,0005.71,0009.72,0004.89
2023-06-03 08:02:00,SystemResetWarning,0830.2,5.01,000.00,030.5,029.0,000.0,038.9,032.1,29.2,0003.7,0005.71,0009.71,0004.89
2023-06-03 08:03:00,SystemResetWarning,0830.2,5.00,000.00,030.5,029.0,000.0,038.9,032.1,29.2,0003.8,0005.72,0009.62,0004.91
2023-06-03 08:04:00,SystemResetWarning,0830.2,4.99,000.00,030.5,029.0,000.0,038.9,032.1,29.2,0003.7,0005.66,0009.42,0004.92
2023-06-03 08:05:00,SystemResetWarning,0830.2,5.00,000.00,030.5,029.0,000.0,038.9,032.1,29.1,0003.3,0005.67,0009.44,0004.93
2023-06-03 08:06:00,SystemResetWarning,0830.2,4.99,000.00,030.5,029.0,000.0,038.9,032.1,29.1,0003.2,0005.65,0009.36,0004.92
2023-06-03 08:07:00,SystemResetWarning,0830.3,4.99,000.00,030.5,029.0,000.0,038.9,032.1,29.1,0002.5,0005.63,0009.36,0004.91
2023-06-03 08:08:00,SystemResetWarning,0830.3,5.00,000.00,030.5,029.0,000.0,038.9,032.1,29.0,0001.3,0005.67,0009.61,0004.93
2023-06-03 08:09:00,SystemResetWarning,0830.2,5.01,000.00,030.5,029.0,000.0,038.9,032.1,29.1,0000.0,0005.71,0009.71,0004.93
2023-06-03 08:10:00,SystemResetWarning,0830.2,5.01,000.00,030.5,029.0,000.0,038.9,032.1,29.1,0000.0,0005.68,0009.57,0004.94
2023-06-03 08:11:00,SystemResetWarning,0830.2,4.99,000.00,030.5,029.0,000.0,038.9,032.1,29.1,0000.0,0005.66,0009.47,0004.95
2023-06-03 08:12:00,SystemResetWarning,0830.1,4.99,000.00,030.5,029.0,000.0,038.9,032.1,29.1,0000.0,0005.66,0009.51,0004.97
2023-06-03 08:13:00,SystemResetWarning,0830.1,5.01,000.00,030.5,029.0,000.0,038.9,032.1,29.1,0000.0,0005.68,0009.53,0004.98
2023-06-03 08:14:00,SystemResetWarning,0830.1,5.02,000.00,030.5,028.9,000.0,038.9,032.1,29.0,0000.0,0005.67,0009.57,0004.98
2023-06-03 08:15:00,SystemResetWarning,0830.1,5.00,000.00,030.5,028.9,000.0,038.9,032.1,28.9,0000.0,0005.67,0009.60,0004.99
2023-06-03 08:16:00,SystemResetWarning,0830.1,4.98,000.00,030.5,028.9,000.0,038.9,032.1,28.9,0000.3,0005.69,0009.57,0005.00
2023-06-03 08:17:00,SystemResetWarning,0830.1,5.00,000.00,030.5,028.9,000.0,038.9,032.1,28.8,0002.1,0005.74,0009.69,0005.02
2023-06-03 08:18:00,SystemResetWarning,0830.1,5.00,000.00,030.5,028.9,000.0,038.9,032.1,28.8,0002.5,0005.77,0009.77,0005.04
2023-06-03 08:19:00,SystemResetWarning,0830.1,5.01,000.00,030.5,028.9,000.0,038.9,032.1,28.8,0002.7,0005.75,0009.66,0005.04
2023-06-03 08:20:00,SystemResetWarning,0830.1,5.00,000.00,030.5,028.9,000.0,038.9,032.1,28.8,0003.0,0005.78,0010.33,0005.05
2023-06-03 08:21:00,SystemResetWarning,0830.1,4.98,000.00,030.5,027.6,000.0,038.8,031.9,28.8,0002.9,0005.82,0010.52,0005.06
2023-06-03 08:22:00,SystemResetWarning,0830.0,5.00,000.00,030.4,026.0,000.0,038.7,031.6,28.9,0002.7,0005.88,0011.17,0005.07
2023-06-03 08:23:00,SystemResetWarning,0830.0,5.01,000.00,030.3,025.6,000.0,038.6,031.4,29.1,0002.8,0005.93,0011.42,0005.10
2023-06-03 08:24:00,SystemResetWarning,0830.0,5.01,000.00,030.1,025.8,000.0,038.6,031.3,29.3,0002.4,0006.00,0011.57,0005.14
2023-06-03 08:25:00,SystemResetWarning,0830.0,5.00,000.00,030.1,026.1,000.0,038.6,031.3,29.4,0001.9,0006.04,0011.57,0005.17
2023-06-03 08:26:00,SystemResetWarning,0830.0,5.00,000.00,030.0,026.5,000.0,038.6,031.4,29.5,0002.6,0006.08,0011.59,0005.19
2023-06-03 08:27:00,SystemResetWarning,0830.0,5.00,000.00,030.0,026.8,000.0,038.5,031.4,29.5,0003.2,0006.11,0011.64,0005.20
2023-06-03 08:28:00,SystemResetWarning,0830.1,5.00,000.00,030.0,027.1,000.0,038.5,031.4,29.5,0002.2,0006.11,0011.79,0005.22
2023-06-03 08:29:00,SystemResetWarning,0830.0,5.01,000.00,030.0,027.4,000.0,038.5,031.4,29.6,0002.0,0006.13,0011.75,0005.25
2023-06-03 08:30:00,SystemResetWarning,0830.0,5.00,000.00,030.0,027.6,000.0,038.5,031.4,29.6,0001.5,0006.17,0011.69,0005.26
2023-06-03 08:31:00,SystemResetWarning,0830.1,5.00,000.00,030.0,027.7,000.0,038.5,031.5,29.6,0001.1,0006.17,0011.59,0005.27
2023-06-03 08:32:00,SystemResetWarning,0830.1,5.00,000.00,029.9,027.9,000.0,038.4,031.5,29.6,0001.0,0006.16,0011.45,0005.27
2023-06-03 08:33:00,SystemResetWarning,0830.1,5.00,000.00,030.0,028.0,000.0,038.4,031.5,29.6,0001.0,0006.18,0011.08,0005.28
2023-06-03 08:34:00,SystemResetWarning,0830.1,5.00,000.00,030.0,028.1,000.0,038.4,031.5,29.6,0000.9,0006.13,0011.11,0005.28
2023-06-03 08:35:00,SystemResetWarning,0830.1,5.00,000.00,030.0,028.1,000.0,038.4,031.5,29.6,0001.2,0006.09,0011.93,0005.27
2023-06-03 08:36:00,SystemResetWarning,0830.1,5.00,000.00,030.0,028.2,000.0,038.4,031.5,29.6,0001.6,0006.06,0011.88,0005.26
2023-06-03 08:37:00,SystemResetWarning,0830.1,5.00,000.00,030.0,028.2,000.0,038.4,031.6,29.6,0001.1,0006.08,0011.95,0005.27
2023-06-03 08:38:00,SystemResetWarning,0830.1,5.00,000.00,030.0,028.3,000.0,038.4,031.6,29.6,0000.9,0006.04,0011.88,0005.27
2023-06-03 08:39:00,SystemResetWarning,0830.1,5.00,000.00,030.0,028.3,000.0,038.4,031.6,29.6,0001.2,0006.04,0011.74,0005.28
2023-06-03 08:40:00,SystemResetWarning,0830.1,5.00,000.00,030.0,028.4,000.0,038.4,031.6,29.5,0001.5,0006.03,0011.94,0005.28
2023-06-03 08:41:00,SystemResetWarning,0830.1,5.00,000.00,030.0,028.4,000.0,038.4,031.6,29.5,0001.9,0006.00,0011.89,0005.28
2023-06-03 08:42:00,SystemResetWarning,0830.1,5.00,000.00,030.0,028.4,000.0,038.4,031.6,29.5,0002.5,0006.01,0011.44,0005.29
2023-06-03 08:43:00,SystemResetWarning,0830.1,5.00,000.00,030.0,028.4,000.0,038.4,031.6,29.5,0002.3,0006.08,0011.41,0005.32
2023-06-03 08:44:00,SystemResetWarning,0830.1,5.00,000.00,030.0,028.4,000.0,038.4,031.6,29.5,0002.1,0006.06,0011.33,0005.35
2023-06-03 08:45:00,SystemResetWarning,0830.1,4.99,000.00,030.0,028.5,000.0,038.4,031.7,29.5,0002.1,0006.09,0011.21,0005.36
2023-06-03 08:46:00,SystemResetWarning,0830.1,5.00,000.00,030.1,028.5,000.0,038.4,031.7,29.4,0001.8,0006.11,0010.05,0005.38
2023-06-03 08:47:00,SystemResetWarning,0830.1,5.00,000.00,030.1,028.5,000.0,038.4,031.7,29.4,0001.8,0006.12,0010.07,0005.40
2023-06-03 08:48:00,SystemResetWarning,0830.1,5.00,000.00,030.1,028.5,000.0,038.4,031.7,29.4,0002.1,0006.16,0010.20,0005.42
2023-06-03 08:49:00,SystemResetWarning,0830.1,5.01,000.00,030.1,028.5,000.0,038.4,031.7,29.4,0001.9,0006.20,0010.26,0005.44
2023-06-03 08:50:00,SystemResetWarning,0830.1,5.00,000.00,030.1,028.5,000.0,038.4,031.7,29.3,0001.9,0006.21,0010.28,0005.45
2023-06-03 08:51:00,SystemResetWarning,0830.1,5.01,000.00,030.1,028.5,000.0,038.5,031.7,29.3,0002.1,0006.24,0010.03,0005.45
2023-06-03 08:52:00,SystemResetWarning,0830.1,5.00,000.00,030.1,028.6,000.0,038.5,031.7,29.3,0002.1,0006.28,0010.20,0005.48
2023-06-03 08:53:00,SystemResetWarning,0830.0,5.00,000.00,030.1,028.6,000.0,038.5,031.8,29.3,0001.6,0006.32,0010.39,0005.50
2023-06-03 08:54:00,SystemResetWarning,0830.0,5.00,000.00,030.1,028.6,000.0,038.5,031.8,29.3,0001.7,0006.29,0010.35,0005.51
2023-06-03 08:55:00,SystemResetWarning,0830.0,4.99,000.00,030.1,028.6,000.0,038.5,031.7,29.2,0001.8,0006.31,0010.50,0005.51
2023-06-03 08:56:00,SystemResetWarning,0830.1,4.99,000.00,030.1,028.6,000.0,038.5,031.7,29.2,0001.8,0006.41,0010.77,0005.54
2023-06-03 08:57:00,SystemResetWarning,0830.0,5.00,000.00,030.2,028.6,000.0,038.5,031.7,29.1,0002.0,0006.51,0011.15,0005.55
2023-06-03 08:58:00,SystemResetWarning,0830.0,5.00,000.00,030.2,028.6,000.0,038.5,031.7,29.1,0001.8,0006.57,0012.14,0005.56
2023-06-03 08:59:00,SystemResetWarning,0830.1,5.00,000.00,030.2,028.6,000.0,038.5,031.7,29.1,0001.3,0006.64,0012.96,0005.57
